Weather History for KVLL - March, 2013

Change the Weather History Date:

Monday, March 11, 2013

  Actual Average (KDET) Record (KDET)
Temperature  
Mean Temperature 48 °F -  
Max Temperature 56 °F 41 °F 67 °F (1973)
Min Temperature 39 °F 26 °F 7 °F (1960)
Degree Days  
Heating Degree Days 18    
Moisture  
Dew Point 42 °F    
Average Humidity 74    
Maximum Humidity 92    
Minimum Humidity 48    
Precipitation  
Precipitation 0.00 in - - ()
Sea Level Pressure  
Sea Level Pressure 29.68 in    
Wind  
Wind Speed 10 mph (SSW)    
Max Wind Speed 21 mph    
Max Gust Speed 33 mph    
Visibility 9 miles    
Events Rain    
Averages and records for this station are not official NWS values.
T = Trace of Precipitation, MM = Missing Value Source: NWS Daily Summary

Daily Weather History Graph

Daily Weather History Graph

Search for Another Location

Airport or City:

Trip Planner

Search our weather history database for the weather conditions in past years. The results will help you decide how hot, cold, wet, or windy it might be!

Date:

Astronomy

Mar. 11, 2013 Rise Set
Actual Time 7:51 AM EDT 7:34 PM EDT
Civil Twilight 7:23 AM EDT 8:02 PM EDT
Nautical Twilight 6:50 AM EDT 8:35 PM EDT
Astronomical Twilight 6:17 AM EDT 9:08 PM EDT
Moon 7:23 AM EDT (3/11) 7:47 PM EDT (3/11)
Length of Visible Light 12h 39m
Length of Day
11h 43m
Waning Crescent, 0% of the Moon is Illuminated
Mar 11
Waning Crescent
Mar 11
New
Mar 19
First Quarter
Mar 27
Full
Apr 3
Last Quarter

Hourly Weather History & Observations

Time (EDT) Temp. Windchill Dew Point Humidity Pressure Visibility Wind Dir Wind Speed Gust Speed Precip Events Conditions
12:14 AM 51.1 °F - 36.0 °F 56% 29.82 in 10.0 mi Calm Calm - N/A   Mostly Cloudy
12:34 AM 53.1 °F - 35.1 °F 50% 29.84 in 10.0 mi South 5.8 mph - N/A   Overcast
1:14 AM 54.9 °F - 36.0 °F 49% 29.83 in 10.0 mi SSW 5.8 mph - N/A   Overcast
1:34 AM 54.9 °F - 35.6 °F 48% 29.81 in 10.0 mi SSW 5.8 mph - N/A   Overcast
1:54 AM 55.4 °F - 36.5 °F 49% 29.80 in 10.0 mi South 5.8 mph - N/A   Overcast
2:14 AM 55.4 °F - 37.0 °F 50% 29.80 in 10.0 mi South 6.9 mph - N/A   Overcast
2:34 AM 54.5 °F - 37.4 °F 52% 29.80 in 10.0 mi South 4.6 mph - N/A   Overcast
2:54 AM 54.5 °F - 37.0 °F 52% 29.78 in 10.0 mi South 6.9 mph - N/A   Overcast
3:14 AM 55.4 °F - 37.6 °F 51% 29.79 in 10.0 mi South 8.1 mph - N/A   Overcast
3:35 AM 56.3 °F - 39.2 °F 53% 29.78 in 10.0 mi South 13.8 mph 21.9 mph N/A   Overcast
3:54 AM 56.8 °F - 39.9 °F 53% 29.77 in 10.0 mi South 15.0 mph 27.6 mph N/A   Overcast
4:14 AM 54.7 °F - 43.3 °F 66% 29.76 in 10.0 mi South 15.0 mph 25.3 mph N/A Rain Light Rain
4:35 AM 54.5 °F - 44.1 °F 68% 29.76 in 10.0 mi South 16.1 mph 23.0 mph N/A   Overcast
4:54 AM 54.0 °F - 44.6 °F 71% 29.76 in 10.0 mi South 15.0 mph 20.7 mph N/A   Overcast
5:14 AM 53.6 °F - 45.5 °F 74% 29.75 in 10.0 mi South 12.7 mph 21.9 mph N/A   Overcast
5:35 AM 53.6 °F - 46.4 °F 77% 29.75 in 10.0 mi South 12.7 mph 19.6 mph N/A   Overcast
5:54 AM 53.2 °F - 46.0 °F 77% 29.75 in 10.0 mi South 13.8 mph 24.2 mph N/A   Overcast
6:14 AM 53.1 °F - 45.7 °F 76% 29.75 in 10.0 mi South 12.7 mph 20.7 mph N/A   Overcast
6:34 AM 52.2 °F - 45.1 °F 77% 29.75 in 10.0 mi South 17.3 mph 24.2 mph N/A   Overcast
6:54 AM 52.0 °F - 45.1 °F 77% 29.75 in 10.0 mi South 17.3 mph 23.0 mph N/A Rain Rain
7:14 AM 50.9 °F - 46.6 °F 85% 29.76 in 10.0 mi South 11.5 mph 19.6 mph N/A   Overcast
7:34 AM 50.4 °F - 46.6 °F 87% 29.75 in 5.0 mi South 10.4 mph 16.1 mph N/A Rain Rain
7:54 AM 50.2 °F - 46.8 °F 88% 29.74 in 7.0 mi South 9.2 mph - N/A Rain Light Rain
8:14 AM 50.0 °F - 46.8 °F 89% 29.74 in 10.0 mi South 10.4 mph - N/A   Overcast
8:34 AM 50.2 °F - 46.4 °F 87% 29.75 in 10.0 mi South 10.4 mph 16.1 mph N/A   Overcast
8:54 AM 50.0 °F - 45.9 °F 86% 29.75 in 5.0 mi South 12.7 mph 20.7 mph N/A   Light Drizzle
9:14 AM 50.4 °F - 45.5 °F 83% 29.74 in 10.0 mi South 12.7 mph 19.6 mph N/A   Overcast
9:34 AM 50.7 °F - 45.1 °F 81% 29.74 in 10.0 mi South 11.5 mph 17.3 mph N/A   Overcast
9:54 AM 50.9 °F - 45.1 °F 81% 29.73 in 10.0 mi South 12.7 mph 18.4 mph N/A   Overcast
10:15 AM 51.8 °F - 45.9 °F 80% 29.73 in 10.0 mi South 15.0 mph 23.0 mph N/A   Overcast
10:34 AM 52.3 °F - 46.4 °F 80% 29.73 in 10.0 mi South 11.5 mph 27.6 mph N/A   Overcast
10:54 AM 52.9 °F - 46.4 °F 79% 29.72 in 10.0 mi South 20.7 mph 28.8 mph N/A   Overcast
11:15 AM 52.9 °F - 46.4 °F 79% 29.71 in 10.0 mi South 16.1 mph 27.6 mph N/A   Overcast
11:34 AM 51.8 °F - 46.8 °F 83% 29.70 in 7.0 mi South 12.7 mph 26.5 mph N/A Rain Light Rain
11:54 AM 51.8 °F - 45.5 °F 79% 29.69 in 7.0 mi South 15.0 mph 24.2 mph N/A   Overcast
12:15 PM 52.0 °F - 44.6 °F 76% 29.68 in 10.0 mi South 12.7 mph 26.5 mph N/A   Overcast
12:34 PM 52.0 °F - 43.5 °F 73% 29.67 in 10.0 mi South 13.8 mph 24.2 mph N/A   Overcast
12:54 PM 52.0 °F - 43.0 °F 71% 29.66 in 10.0 mi South 12.7 mph 17.3 mph N/A Rain Light Rain
1:14 PM 50.9 °F - 43.5 °F 76% 29.65 in 10.0 mi South 12.7 mph 16.1 mph N/A Rain Light Rain
1:34 PM 50.4 °F - 43.3 °F 77% 29.64 in 10.0 mi South 12.7 mph 21.9 mph N/A Rain Light Rain
1:55 PM 50.5 °F - 43.7 °F 77% 29.62 in 10.0 mi South 10.4 mph 16.1 mph N/A Rain Light Rain
2:14 PM 51.1 °F - 45.0 °F 80% 29.60 in 10.0 mi South 9.2 mph - N/A Rain Light Rain
2:34 PM 50.9 °F - 45.5 °F 82% 29.58 in 5.0 mi South 9.2 mph 18.4 mph N/A Rain Rain
2:54 PM 50.2 °F - 46.4 °F 87% 29.57 in 3.0 mi South 12.7 mph 24.2 mph N/A Rain Rain
3:14 PM 50.2 °F - 47.1 °F 89% 29.56 in 5.0 mi South 10.4 mph 16.1 mph N/A Rain Rain
3:35 PM 50.0 °F - 47.3 °F 90% 29.54 in 3.0 mi South 10.4 mph 16.1 mph N/A Rain Rain
3:54 PM 49.8 °F - 47.1 °F 90% 29.52 in 4.0 mi South 6.9 mph - N/A Rain Light Rain
4:14 PM 50.0 °F - 47.3 °F 90% 29.52 in 3.0 mi South 5.8 mph - N/A Rain Rain
4:34 PM 49.6 °F - 47.1 °F 91% 29.51 in 3.0 mi South 8.1 mph - N/A Rain Rain
4:54 PM 49.5 °F - 47.3 °F 92% 29.51 in 4.0 mi South 13.8 mph 19.6 mph N/A Rain Rain
5:15 PM 50.0 °F - 47.3 °F 90% 29.50 in 7.0 mi SSW 10.4 mph 19.6 mph N/A Rain Light Rain
5:34 PM 49.6 °F - 46.8 °F 90% 29.53 in 10.0 mi WSW 11.5 mph 23.0 mph N/A Rain Light Rain
5:54 PM 49.6 °F - 46.4 °F 89% 29.54 in 7.0 mi WSW 12.7 mph 20.7 mph N/A Rain Light Rain
6:14 PM 49.3 °F - 44.6 °F 84% 29.54 in 5.0 mi SW 12.7 mph 19.6 mph N/A   Light Drizzle
6:34 PM 49.8 °F - 44.6 °F 82% 29.55 in 10.0 mi SW 13.8 mph - N/A   Scattered Clouds
6:55 PM 49.1 °F - 43.3 °F 81% 29.56 in 10.0 mi SW 12.7 mph 19.6 mph N/A   Scattered Clouds
7:14 PM 49.1 °F - 42.3 °F 77% 29.56 in 10.0 mi SW 11.5 mph 21.9 mph N/A   Mostly Cloudy
7:34 PM 48.6 °F - 38.3 °F 68% 29.57 in 10.0 mi SW 11.5 mph 27.6 mph N/A   Overcast
7:54 PM 47.5 °F - 36.5 °F 66% 29.58 in 10.0 mi SW 15.0 mph 19.6 mph N/A   Overcast
8:14 PM 47.1 °F - 35.6 °F 64% 29.60 in 10.0 mi SW 15.0 mph 20.7 mph N/A   Overcast
8:35 PM 46.4 °F 39.2 °F 34.3 °F 63% 29.60 in 10.0 mi SW 18.4 mph 33.4 mph N/A   Overcast
8:54 PM 45.5 °F 37.8 °F 33.8 °F 64% 29.61 in 10.0 mi SW 19.6 mph 27.6 mph N/A   Overcast
9:14 PM 44.2 °F 37.0 °F 33.1 °F 65% 29.62 in 10.0 mi SW 16.1 mph 27.6 mph N/A   Scattered Clouds
9:35 PM 43.7 °F 37.7 °F 32.9 °F 66% 29.62 in 10.0 mi SW 11.5 mph - N/A   Mostly Cloudy
9:54 PM 43.0 °F 36.0 °F 33.1 °F 68% 29.64 in 10.0 mi SW 13.8 mph 27.6 mph N/A   Overcast
10:14 PM 42.1 °F 34.2 °F 32.9 °F 70% 29.65 in 10.0 mi SW 16.1 mph 26.5 mph N/A   Overcast
10:34 PM 41.4 °F 32.1 °F 32.2 °F 70% 29.68 in 10.0 mi SW 20.7 mph 26.5 mph N/A   Overcast
10:54 PM 40.1 °F 32.4 °F 32.9 °F 75% 29.68 in 10.0 mi SW 13.8 mph 24.2 mph N/A   Overcast
11:14 PM 39.9 °F 33.9 °F 32.9 °F 76% 29.69 in 10.0 mi SW 9.2 mph 19.6 mph N/A   Overcast
11:34 PM 39.7 °F 33.7 °F 32.0 °F 74% 29.69 in 10.0 mi WSW 9.2 mph 21.9 mph N/A   Overcast
11:55 PM 39.2 °F 31.2 °F 31.8 °F 75% 29.70 in 10.0 mi WSW 13.8 mph 25.3 mph N/A   Overcast